CST,Max TemperatureF,Mean TemperatureF,Min TemperatureF,Max Dew PointF,MeanDew PointF,Min DewpointF,Max Humidity, Mean Humidity, Min Humidity, Max Sea Level PressureIn, Mean Sea Level PressureIn, Min Sea Level PressureIn, Max VisibilityMiles, Mean VisibilityMiles, Min VisibilityMiles, Max Wind SpeedMPH, Mean Wind SpeedMPH, Max Gust SpeedMPH,PrecipitationIn, CloudCover, Events, WindDirDegrees
2012-12-1,59,47,35,54,47,33,94,88,82,30.02,29.87,29.79,10,5,0,14,7,17,0.00,6,Fog,166
2012-12-2,55,50,46,50,47,45,95,93,78,30.02,29.94,29.86,7,2,0,13,5,,0.00,7,Fog-Rain,166
2012-12-3,69,57,43,59,48,32,94,75,55,30.03,29.81,29.68,10,7,0,24,13,32,0.00,4,Fog,218
2012-12-4,63,48,32,31,25,18,77,48,18,30.33,30.20,30.03,10,10,7,15,7,18,0.00,0,,294
2012-12-5,50,38,25,35,28,21,83,64,46,30.36,30.21,29.99,10,10,10,17,9,24,0.00,0,,118
2012-12-6,52,48,43,40,35,31,88,63,53,29.99,29.93,29.88,10,10,10,16,11,22,0.00,4,,208
2012-12-7,43,40,37,36,33,31,89,77,69,29.97,29.92,29.86,10,10,7,10,5,,0.00,8,Rain,13
2012-12-8,41,32,24,34,30,23,94,83,66,30.01,29.96,29.92,10,9,4,12,4,,0.00,3,,64
2012-12-9,38,29,20,37,28,14,95,86,72,29.97,29.88,29.82,10,6,2,24,11,33,0.00,8,Rain,294
2012-12-10,29,22,16,15,12,8,80,66,43,30.01,29.96,29.94,10,10,10,21,14,29,0.00,3,,260
2012-12-11,43,30,18,20,16,9,70,58,38,30.06,29.98,29.91,10,10,10,18,9,23,0.00,2,,218
2012-12-12,51,38,26,21,15,8,73,45,19,30.13,30.07,30.03,10,10,10,23,12,30,0.00,0,,180
2012-12-13,52,42,31,21,18,14,65,42,27,30.09,30.06,30.03,10,10,10,22,13,26,0.00,0,,189
2012-12-14,53,41,29,40,28,21,87,58,39,30.09,29.96,29.73,10,10,10,21,9,25,0.00,3,Rain,156
2012-12-15,51,45,38,47,42,35,93,88,77,29.70,29.56,29.47,10,9,5,21,14,26,0.20,8,Rain,204
2012-12-16,38,35,32,35,32,28,90,86,80,29.79,29.73,29.66,10,7,4,15,8,,0.00,8,,313
2012-12-17,37,32,28,32,29,26,92,86,72,29.77,29.72,29.66,10,8,5,9,4,,0.00,8,,254
2012-12-18,44,36,28,33,31,26,96,85,61,29.88,29.67,29.48,10,8,3,26,10,36,0.00,4,,228
2012-12-19,36,32,29,33,31,27,95,92,84,29.94,29.83,29.58,7,4,1,22,6,29,0.06,5,Rain-Snow,63
2012-12-20,33,25,17,32,22,11,96,85,75,30.09,29.76,29.47,10,6,0,36,25,46,0.06,5,Rain-Snow,317
2012-12-21,27,20,13,16,11,5,86,70,54,30.30,30.23,30.09,10,10,10,18,11,22,0.00,0,,277
2012-12-22,38,28,17,25,18,11,87,69,52,30.22,30.02,29.91,10,10,10,13,7,,0.00,0,,183
2012-12-23,26,19,12,18,14,9,90,83,70,30.02,29.97,29.94,10,9,5,13,9,16,0.00,0,,359
2012-12-24,21,16,12,18,13,8,93,83,71,30.20,30.04,29.94,10,7,2,18,10,24,0.00,6,Snow,319
2012-12-25,14,9,4,7,3,-1,82,78,70,30.41,30.30,30.21,10,10,10,15,11,21,0.00,0,,346
2012-12-26,18,10,2,10,5,-2,85,79,69,30.28,30.21,30.16,10,10,10,13,8,,0.00,2,,337
2012-12-27,28,18,7,22,15,4,88,81,71,30.18,30.08,29.99,10,10,10,12,5,,0.00,5,,76
2012-12-28,28,24,21,25,23,18,91,87,81,30.01,29.95,29.90,10,6,2,15,5,20,0.00,8,Snow,323
2012-12-29,24,18,13,18,14,10,90,82,67,30.22,30.15,30.01,10,8,1,17,10,18,0.00,4,Snow,264
2012-12-30,41,27,13,27,20,11,90,71,51,30.26,30.14,30.01,10,10,10,23,9,25,0.00,0,,191
2012-12-31,34,24,14,27,16,9,83,75,69,30.21,30.14,30.04,10,10,10,15,10,18,0.00,6,,330